Simultaneous Nadir Overpasses (SNOs) Predictions

Prediction of SNOs between FY3D and LANDSAT-8 Satellite Orbit:

Table of predicted SNOs for the next 14.0 days since TLE Epoch: 3/9/2024
Index Date (FY3D) Time (FY3D) Lat,Lon (FY3D) SZA (FY3D ) Date (LANDSAT-8) Time (LANDSAT-8) Lat,Lon (LANDSAT-8) SZA (LANDSAT-8 ) Distance(km) Time Diff (sec)
1 03/10/2024 03:13:18 74.19, 134.28 78.05 03/10/2024 03:14:30 74.13, 134.66 77.99 13.34 72
2 03/10/2024 04:03:59 -74.02, -57.96 102.15 03/10/2024 04:04:00 -74.00, -58.00 102.16 1.93 1
3 03/10/2024 04:54:41 73.80, 109.88 77.63 03/10/2024 04:53:28 73.88, 109.36 77.70 18.19 73
4 03/12/2024 18:40:17 -74.65, 81.38 102.53 03/12/2024 18:41:24 -74.58, 83.96 102.60 76.39 67
5 03/12/2024 19:30:51 74.05,-109.72 76.86 03/12/2024 19:31:00 74.05,-109.66 76.85 1.80 9
6 03/12/2024 20:21:34 -73.98, 57.79 103.24 03/12/2024 20:20:29 -73.97, 57.80 103.25 0.89 65
7 03/15/2024 10:57:40 -74.04,-161.34 104.20 03/15/2024 10:58:02 -74.06,-161.39 104.19 2.57 22
8 03/15/2024 11:48:25 73.97, 6.14 75.72 03/15/2024 11:47:29 73.98, 6.07 75.72 2.43 56
9 03/18/2024 02:24:32 74.09, 146.86 74.81 03/18/2024 02:25:01 74.09, 146.92 74.81 1.85 29
10 03/18/2024 03:15:15 -74.02, -45.63 105.28 03/18/2024 03:14:30 -74.02, -45.60 105.28 1.04 45
11 03/20/2024 17:51:20 -74.10, 95.19 106.23 03/20/2024 17:52:01 -74.11, 95.20 106.23 0.79 41
12 03/20/2024 18:42:05 74.03, -97.32 73.69 03/20/2024 18:41:28 74.02, -97.35 73.68 1.47 37



Historial Predications of SNOs between FY3D and LANDSAT-8
